Regional Weather Roundup
Issued by NWS

Home | Current Version | Previous Version | Graphics & Text | Print | Product List | Glossary On
Versions: 1 2 3 4 5 6 7 8 9 10 11 12 13 14 15 16 17 18 19 20 21 22 23 24 25 26 27 28 29 30 31 32 33 34 35 36 37 38 39 40 41 42 43 44 45 46 47 48 49 50
000
ASUS43 KMKX 111220
RWRWI

WISCONSIN REGIONAL WEATHER ROUNDUP
NATIONAL WEATHER SERVICE MILWAUKEE/SULLIVAN WI
600 AM CST MON DEC 11 2017

NOTE: "FAIR" INDICATES FEW OR NO CLOUDS BELOW 12,000 FEET WITH NO
SIGNIFICANT WEATHER AND/OR OBSTRUCTIONS TO VISIBILITY.

WIZ001-002-006>008-014>016-023>028-111300-
NORTHWEST WISCONSIN

CITY           SKY/WX    TMP DP  RH WIND       PRES   REMARKS
SUPERIOR ARPT  CLOUDY    20  20  97 CALM      29.76F FOG
6HR MIN TEMP:  14; 6HR MAX TEMP:  20; 6HR PCP:  0.01;

ASHLAND        CLOUDY    19  16  88 CALM      29.78F
6HR MIN TEMP:   9; 6HR MAX TEMP:  20; 6HR PCP:  0.01;

HAYWARD        CLOUDY    21  18  88 S7        29.75F WCI  12
6HR MIN TEMP:  11; 6HR MAX TEMP:  21; 6HR PCP:  0.01;

SIREN          CLOUDY    25  23  93 SE5       29.73F WCI  19
6HR MIN TEMP:  19; 6HR MAX TEMP:  25;

CUMBERLAND     CLOUDY    23  21  93 S7        29.74F FOG     WCI  15
RICE LAKE      LGT SNOW  24  23  97 CALM      29.77F
6HR MIN TEMP:  15; 6HR MAX TEMP:  24; 6HR PCP:  0.02;

CHETEK         CLOUDY    23  22  94 SE3       29.77F
6HR MIN TEMP:  12; 6HR MAX TEMP:  23; 6HR PCP:  0.01;

LADYSMITH      CLOUDY    23  21  93 SE7       29.79F FOG     WCI  14
6HR MIN TEMP:  15; 6HR MAX TEMP:  23; 6HR PCP:  0.01;

EAU CLAIRE     CLOUDY    25  22  88 S8        29.77F FOG     WCI  16
6HR MIN TEMP:  23; 6HR MAX TEMP:  25; 6HR PCP:  0.06;

MENOMONIE      CLOUDY    26  24  95 SE6       29.78F WCI  19
6HR MIN TEMP:  20; 6HR MAX TEMP:  26; 6HR PCP:  0.01;

NEW RICHMOND   CLOUDY    26  24  93 S7        29.75F WCI  19
6HR MIN TEMP:  22; 6HR MAX TEMP:  26;

OSCEOLA        CLOUDY    27  27 100 S6        29.77F WCI  20
6HR MIN TEMP:  24; 6HR MAX TEMP:  27;

$$

WIZ003>005-009-010-017-018-111300-
NORTH CENTRAL WISCONSIN

CITY           SKY/WX    TMP DP  RH WIND       PRES   REMARKS
MANITOWISH WTR FLURRIES  15  15 100 S6        29.78F WCI   7
6HR MIN TEMP:   3; 6HR MAX TEMP:  15;

ARBOR VITAE    FLURRIES  18  15  89 S5        29.79S WCI  11
6HR MIN TEMP:   9; 6HR MAX TEMP:  18;

WOODRUFF       FLURRIES  18  15  89 S5        29.79S WCI  11
6HR MIN TEMP:   9; 6HR MAX TEMP:  18;

RHINELANDER    LGT SNOW  18  15  88 S5        29.80F FOG     WCI  11
6HR MIN TEMP:   7; 6HR MAX TEMP:  17; 6HR PCP:  0.02;

EAGLE RIVER    LGT SNOW  16  12  86 S3        29.80R
6HR MIN TEMP:   9; 6HR MAX TEMP:  16;

LAND O LAKES   LGT SNOW  16  13  89 S3        29.81R VSB 1
6HR MIN TEMP:   9; 6HR MAX TEMP:  16;

PHILLIPS       CLOUDY    18  17  94 S7        29.77F WCI   9
TOMAHAWK       LGT SNOW  18  15  90 CALM      29.80F
6HR MIN TEMP:   6; 6HR MAX TEMP:  18;

MEDFORD        CLOUDY    19  17  93 SE7       29.78F WCI  10
6HR MIN TEMP:  14; 6HR MAX TEMP:  19;

MERRILL        LGT SNOW  19  17  91 CALM      29.83F
6HR MIN TEMP:  10; 6HR MAX TEMP:  19;

$$

WIZ029-030-035-036-043>047-111300-
CENTRAL WISCONSIN

CITY           SKY/WX    TMP DP  RH WIND       PRES   REMARKS
WAUSAU         LGT SNOW  20  17  88 SE9       29.82F FOG     WCI   9
6HR MIN TEMP:  17; 6HR MAX TEMP:  20; 6HR PCP:  0.02;

MOSINEE        LGT SNOW  19  19 100 SE6       29.84F WCI  11
MARSHFIELD     LGT SNOW  21  19  92 S7        29.80F FOG     WCI  12
6HR MIN TEMP:  17; 6HR MAX TEMP:  21; 6HR PCP:  0.02;

STEVENS POINT  CLOUDY    19  19  98 S7        29.86S WCI  10
6HR MIN TEMP:  14; 6HR MAX TEMP:  19; 6HR PCP:  0.01;

WAUPACA        LGT SNOW  24  20  87 S5        29.89F WCI  18
6HR MIN TEMP:  23; 6HR MAX TEMP:  25;

WAUTOMA        LGT SNOW  21  19  93 S6        29.90F FOG     WCI  14
WISC RAPIDS    LGT SNOW  22  19  89 S7        29.86F FOG     WCI  13
6HR MIN TEMP:  15; 6HR MAX TEMP:  22; 6HR PCP:  0.06;

CAMP DOUGLAS   CLOUDY    25  21  86 S9        29.84F WCI  15
6HR MIN TEMP:  21; 6HR MAX TEMP:  24; 6HR PCP:  0.03;

$$

WIZ011>013-019>022-031-037>040-048>050-111300-
NORTHEAST WISCONSIN

CITY           SKY/WX    TMP DP  RH WIND       PRES   REMARKS
ANTIGO         LGT SNOW  17  15  92 S7        29.84R WCI   8
6HR MIN TEMP:  13; 6HR MAX TEMP:  17;

SHAWANO        LGT SNOW  22  17  79 S3        29.89S
6HR MIN TEMP:  22; 6HR MAX TEMP:  24;

OCONTO         CLOUDY    22  14  71 S6        29.92S WCI  14
6HR MIN TEMP:  13; 6HR MAX TEMP:  22;

STURGEON BAY   CLOUDY    20  14  77 SE5       29.91F WCI  13
6HR MIN TEMP:  15; 6HR MAX TEMP:  20;

GREEN BAY      LGT SNOW  21  18  88 S7        29.91F FOG     WCI  12
6HR MIN TEMP:  21; 6HR MAX TEMP:  22; 6HR PCP: TRACE;

MANITOWOC      LGT SNOW  21  16  81 SW5       29.94S WCI  15
6HR MIN TEMP:  15; 6HR MAX TEMP:  21;

APPLETON       FLURRIES  21  18  86 S6        29.88F WCI  14
CLINTONVILLE   LGT SNOW  21  18  86 S7        29.90S WCI  13
OSHKOSH        LGT SNOW  22  19  89 S9        29.89F FOG     WCI  12
6HR MIN TEMP:  21; 6HR MAX TEMP:  24; 6HR PCP: TRACE;

$$

WIZ032>034-041-042-053>061-111300-
SOUTHWEST WISCONSIN

CITY           SKY/WX    TMP DP  RH WIND       PRES   REMARKS
LA CROSSE      CLOUDY    27  23  85 S10       29.83F WCI  17
6HR MIN TEMP:  26; 6HR MAX TEMP:  28; 6HR PCP:  0.05;

SPARTA         CLOUDY    25  22  88 S6        29.85F WCI  18
6HR MIN TEMP:  19; 6HR MAX TEMP:  25;

VIROQUA        CLOUDY    24  24  99 S9        29.82F WCI  14
6HR MIN TEMP:  22; 6HR MAX TEMP:  24;

BOSCOBEL       PTCLDY    25  20  81 CALM      29.89F
6HR MIN TEMP:  22; 6HR MAX TEMP:  27; 6HR PCP:  0.01;

PRAIRIE DU CHI CLOUDY    28  22  79 E6        29.86F WCI  21
6HR MIN TEMP:  22; 6HR MAX TEMP:  28;

PLATTEVILLE    CLOUDY    26  24  93 SE8       29.88F WCI  17
6HR MIN TEMP:  19; 6HR MAX TEMP:  26;

$$

WIZ056-057-062-063-064-067-068-111300-
SOUTH CENTRAL WISCONSIN

CITY           SKY/WX    TMP DP  RH WIND       PRES   REMARKS
REEDSBURG      FLURRIES  23  22  93 S7        29.87F WCI  15
6HR MIN TEMP:  22; 6HR MAX TEMP:  24;

BARABOO/DELLS  LGT SNOW  23  20  90 S9        29.87F WCI  13
6HR MIN TEMP:  20; 6HR MAX TEMP:  24;

LONE ROCK      CLOUDY    23  22  96 E6        29.90F FOG     WCI  16
6HR MIN TEMP:  19; 6HR MAX TEMP:  24; 6HR PCP:  0.03;

MINERAL POINT  CLOUDY    27  27 100 SE8       29.87F WCI  18
MADISON        LGT SNOW  24  21  88 S9        29.89F FOG     WCI  14
6HR MIN TEMP:  20; 6HR MAX TEMP:  25; 6HR PCP:  0.03;

MIDDLETON      CLOUDY    25  23  89 S6        29.90F WCI  18
6HR MIN TEMP:  19; 6HR MAX TEMP:  26;

WATERTOWN      LGT SNOW  22  22 100 S5        29.93F WCI  15
6HR MIN TEMP:  15; 6HR MAX TEMP:  22;

MONROE         CLOUDY    27  21  80 S7        29.89F WCI  19
JANESVILLE     CLOUDY    27  23  86 CALM      29.93F
$$

WIZ051-052-058>065-066-070>072-111300-
SOUTHEAST WISCONSIN

CITY           SKY/WX    TMP DP  RH WIND       PRES   REMARKS
MILWAUKEE      LGT SNOW  25  20  81 S5        29.95F WCI  19
6HR MIN TEMP:  19; 6HR MAX TEMP:  27; 6HR PCP: TRACE;

WAUKESHA       LGT SNOW  21  18  86 S6        29.95F WCI  14
MILWAUKEE/TIMM LGT SNOW  23  19  86 S6        29.95F WCI  16
RACINE         LGT SNOW  25  19  78 S5        29.98F WCI  19
6HR MIN TEMP:  18; 6HR MAX TEMP:  25; 6HR PCP: TRACE;

BURLINGTON     LGT SNOW  31  31 100 CALM      29.95R
6HR MIN TEMP:  25; 6HR MAX TEMP:  32;

KENOSHA        LGT SNOW  25  19  78 S7        29.96F WCI  17
6HR MIN TEMP:  19; 6HR MAX TEMP:  26; 6HR PCP: TRACE;

FOND DU LAC    LGT SNOW  23  18  81 S9        29.91F WCI  13
6HR MIN TEMP:  20; 6HR MAX TEMP:  23; 6HR PCP: TRACE;

SHEBOYGAN      LGT SNOW  23  20  88 S9        29.93F FOG     WCI  13
6HR MIN TEMP:  22; 6HR MAX TEMP:  24; 6HR PCP: TRACE;

WEST BEND      LGT SNOW  21  19  93 S3        29.93F
JUNEAU         LGT SNOW  21  19  92 S8        29.93F VSB 1   WCI  12
6HR MIN TEMP:  18; 6HR MAX TEMP:  23;

$$

LSZ147-162-111300-
LAKE SUPERIOR

STATION/POSITION TIME  TEMP    WIND        PRES    WAVE
                       AIR SEA DIR/SP/G            HT/PER
                 (UTC) (F)     (DEG/KT/KT) (MB)    (FT/S)
DEVILS ISLAND    1200   22     190/  7/ 10 1009.4F
SAXON HARBOR     1140   21                 1008.8F
$$

LMZ867-665-643>646-111300-
LAKE MICHIGAN

STATION/POSITION TIME  TEMP    WIND        PRES    WAVE
                       AIR SEA DIR/SP/G            HT/PER
                 (UTC) (F)     (DEG/KT/KT) (MB)    (FT/S)
NORTHPORT PIER   1140   20     190/  2/  4 1013.9R
KEWAUNEE LAKESHO 1154   24     200/  6/  7



USA.gov is the U.S. government's official web portal to all federal, state and local government web resources and services.